Location: Unspecified
(0.0000°N, 0.0000°E)
Time: 08:03:18
(UTC+01:00)

Cosmos 2219 - Visible Passes

Search period start: 31 January 2015 00:00
Search period end: 10 February 2015 00:00
Orbit: 832 x 862 km, 71.1° (Epoch: 28 January)

Date Brightness Start Highest point End Pass type
(mag) Time Alt. Az. Time Alt. Az. Time Alt. Az.
31 Jan 3.7 06:02:31 10° S 06:08:06 63° ESE 06:13:43 10° NNE visible
01 Feb 3.7 05:49:09 10° S 05:54:42 61° ESE 06:00:19 10° NNE visible
02 Feb 3.7 05:35:47 10° S 05:41:19 59° ESE 05:46:55 10° NNE visible
03 Feb 3.8 05:22:25 10° S 05:27:56 57° ESE 05:33:31 10° NNE visible
04 Feb 3.8 05:09:03 10° S 05:14:34 55° ESE 05:20:07 10° NNE visible
05 Feb 3.8 04:55:41 10° S 05:01:10 54° ESE 05:06:43 10° NNE visible
06 Feb 5.7 04:42:19 10° S 04:53:16 10° NNE 04:53:19 10° NNE visible
